When you browse on this site, cookies collect data to enhance your experience and personalize the content and advertising you see.
Visit our Privacy Policy to learn more. By continuing to use the site, you agree to this use of cookies and data.

Tiempo cada hora Santa Fe

Hoy, 13 Agosto, Jueves

Tiempo Temperatura Precipitaciones Viento Presión Humedad
00:00 +8°C° 0 mm 1 mps 760 mmHg 55%
01:00 +8°C° 0 mm 1 mps 760 mmHg 57%
02:00 +7°C° 0 mm 1 mps 759 mmHg 59%
03:00 +7°C° 0 mm 1 mps 759 mmHg 60%
04:00 +7°C° 0 mm 1 mps 759 mmHg 60%
05:00 +7°C° 0 mm 1 mps 759 mmHg 61%
06:00 +7°C° 0 mm 1 mps 759 mmHg 59%
07:00 +7°C° 0 mm 0 mps 759 mmHg 57%
08:00 +8°C° 0 mm 0 mps 760 mmHg 55%
09:00 +11°C° 0 mm 0 mps 760 mmHg 50%
10:00 +14°C° 0 mm 1 mps 760 mmHg 44%
11:00 +16°C° 0 mm 1 mps 760 mmHg 39%
12:00 +18°C° 0 mm 1 mps 759 mmHg 37%
13:00 +19°C° 0 mm 1 mps 758 mmHg 34%
14:00 +20°C° 0 mm 1 mps 758 mmHg 31%
15:00 +19°C° 0 mm 1 mps 757 mmHg 35%
16:00 +18°C° 0 mm 1 mps 757 mmHg 39%
17:00 +16°C° 0 mm 1 mps 757 mmHg 43%
18:00 +15°C° 0 mm 1 mps 757 mmHg 46%
19:00 +14°C° 0 mm 2 mps 757 mmHg 49%
20:00 +12°C° 0 mm 2 mps 757 mmHg 52%
21:00 +12°C° 0 mm 2 mps 757 mmHg 55%
22:00 +10°C° 0 mm 2 mps 757 mmHg 59%
23:00 +10°C° 0 mm 2 mps 757 mmHg 63%

Mañana, 14 Agosto, Viernes

Tiempo Temperatura Precipitaciones Viento Presión Humedad
00:00 +9°C° 0 mm 2 mps 756 mmHg 65%
01:00 +9°C° 0 mm 2 mps 756 mmHg 68%
02:00 +9°C° 0 mm 3 mps 756 mmHg 71%
03:00 +8°C° 0 mm 3 mps 755 mmHg 74%
04:00 +8°C° 0 mm 3 mps 755 mmHg 78%
05:00 +8°C° 0 mm 3 mps 754 mmHg 82%
06:00 +9°C° 0 mm 3 mps 755 mmHg 81%
07:00 +10°C° 0 mm 3 mps 755 mmHg 81%
08:00 +11°C° 0 mm 3 mps 755 mmHg 81%
09:00 +13°C° 0 mm 3 mps 755 mmHg 74%
10:00 +17°C° 0 mm 2 mps 755 mmHg 67%
11:00 +19°C° 0 mm 2 mps 755 mmHg 60%
12:00 +20°C° 0 mm 2 mps 755 mmHg 57%
13:00 +21°C° 0 mm 2 mps 754 mmHg 54%
14:00 +23°C° 0 mm 1 mps 754 mmHg 50%
15:00 +22°C° 0 mm 1 mps 754 mmHg 54%
16:00 +20°C° 0 mm 2 mps 754 mmHg 58%
17:00 +19°C° 0 mm 2 mps 754 mmHg 62%
18:00 +19°C° 0 mm 2 mps 755 mmHg 63%
19:00 +18°C° 0 mm 2 mps 756 mmHg 63%
20:00 +17°C° 0 mm 2 mps 756 mmHg 64%
21:00 +16°C° 0 mm 3 mps 757 mmHg 60%
22:00 +14°C° 0 mm 3 mps 757 mmHg 55%
23:00 +12°C° 0 mm 4 mps 758 mmHg 51%

Pasado mañana, 15 Agosto, Sábado

Tiempo Temperatura Precipitaciones Viento Presión Humedad
00:00 +11°C° 0 mm 4 mps 758 mmHg 51%
01:00 +11°C° 0 mm 4 mps 758 mmHg 51%
02:00 +10°C° 0 mm 3 mps 758 mmHg 51%
03:00 +9°C° 0 mm 3 mps 758 mmHg 50%
04:00 +8°C° 0 mm 3 mps 758 mmHg 49%
05:00 +7°C° 0 mm 3 mps 758 mmHg 49%
06:00 +7°C° 0 mm 3 mps 758 mmHg 46%
07:00 +8°C° 0 mm 3 mps 759 mmHg 43%
08:00 +8°C° 0 mm 3 mps 759 mmHg 41%
09:00 +11°C° 0 mm 3 mps 759 mmHg 35%
10:00 +14°C° 0 mm 2 mps 758 mmHg 30%
11:00 +16°C° 0 mm 2 mps 758 mmHg 25%
12:00 +17°C° 0 mm 2 mps 758 mmHg 24%
13:00 +18°C° 0 mm 3 mps 757 mmHg 23%
14:00 +19°C° 0 mm 3 mps 757 mmHg 22%
15:00 +18°C° 0 mm 3 mps 757 mmHg 27%
16:00 +17°C° 0 mm 3 mps 757 mmHg 31%
17:00 +16°C° 0 mm 2 mps 757 mmHg 36%
18:00 +14°C° 0 mm 2 mps 758 mmHg 39%
19:00 +12°C° 0 mm 2 mps 758 mmHg 42%
20:00 +10°C° 0 mm 2 mps 759 mmHg 45%
21:00 +9°C° 0 mm 2 mps 760 mmHg 46%
22:00 +9°C° 0 mm 2 mps 761 mmHg 48%
23:00 +8°C° 0 mm 2 mps 762 mmHg 50%

16 Agosto, Domingo

Tiempo Temperatura Precipitaciones Viento Presión Humedad
00:00 +8°C° 0 mm 2 mps 762 mmHg 51%
01:00 +7°C° 0 mm 2 mps 762 mmHg 53%
02:00 +8°C° 0 mm 1 mps 762 mmHg 54%
03:00 +7°C° 0 mm 1 mps 762 mmHg 55%
04:00 +7°C° 0 mm 1 mps 762 mmHg 56%
05:00 +6°C° 0 mm 1 mps 762 mmHg 57%
06:00 +7°C° 0 mm 1 mps 762 mmHg 55%
07:00 +8°C° 0 mm 1 mps 762 mmHg 54%
08:00 +9°C° 0 mm 1 mps 762 mmHg 52%
09:00 +11°C° 0 mm 1 mps 762 mmHg 46%
10:00 +13°C° 0 mm 1 mps 762 mmHg 39%
11:00 +16°C° 0 mm 1 mps 762 mmHg 33%
12:00 +18°C° 0 mm 1 mps 761 mmHg 30%
13:00 +19°C° 0 mm 1 mps 760 mmHg 27%
14:00 +18°C° 0 mm 0 mps 760 mmHg 25%
15:00 +17°C° 0 mm 0 mps 759 mmHg 28%
16:00 +16°C° 0 mm 0 mps 759 mmHg 32%
17:00 +16°C° 0 mm 1 mps 759 mmHg 36%
18:00 +14°C° 0 mm 1 mps 759 mmHg 37%
19:00 +13°C° 0 mm 1 mps 759 mmHg 37%
20:00 +11°C° 0 mm 1 mps 759 mmHg 38%
21:00 +10°C° 0 mm 2 mps 759 mmHg 41%
22:00 +9°C° 0 mm 2 mps 760 mmHg 43%
23:00 +9°C° 0 mm 2 mps 760 mmHg 45%

17 Agosto, Lunes

Tiempo Temperatura Precipitaciones Viento Presión Humedad
00:00 +8°C° 0 mm 2 mps 760 mmHg 48%
01:00 +8°C° 0 mm 2 mps 760 mmHg 50%
02:00 +7°C° 0 mm 2 mps 760 mmHg 52%
03:00 +7°C° 0 mm 2 mps 759 mmHg 53%
04:00 +7°C° 0 mm 2 mps 759 mmHg 53%
05:00 +6°C° 0 mm 2 mps 759 mmHg 54%
06:00 +7°C° 0 mm 2 mps 759 mmHg 53%
07:00 +8°C° 0 mm 2 mps 760 mmHg 52%
08:00 +9°C° 0 mm 2 mps 760 mmHg 51%
09:00 +13°C° 0 mm 2 mps 760 mmHg 45%
10:00 +15°C° 0 mm 2 mps 760 mmHg 40%
11:00 +18°C° 0 mm 2 mps 760 mmHg 34%
12:00 +19°C° 0 mm 2 mps 759 mmHg 33%
13:00 +20°C° 0 mm 2 mps 758 mmHg 32%
14:00 +21°C° 0 mm 2 mps 758 mmHg 31%
15:00 +20°C° 0 mm 2 mps 757 mmHg 35%
16:00 +19°C° 0 mm 2 mps 757 mmHg 39%
17:00 +18°C° 0 mm 2 mps 757 mmHg 42%
18:00 +16°C° 0 mm 2 mps 757 mmHg 43%
19:00 +15°C° 0 mm 2 mps 757 mmHg 44%
20:00 +13°C° 0 mm 2 mps 757 mmHg 44%
21:00 +12°C° 0 mm 3 mps 757 mmHg 46%
22:00 +11°C° 0 mm 3 mps 757 mmHg 48%
23:00 +11°C° 0 mm 3 mps 757 mmHg 51%

18 Agosto, Martes

Tiempo Temperatura Precipitaciones Viento Presión Humedad
00:00 +10°C° 0 mm 3 mps 757 mmHg 52%
01:00 +10°C° 0 mm 3 mps 757 mmHg 53%
02:00 +9°C° 0 mm 3 mps 757 mmHg 54%
03:00 +9°C° 0 mm 2 mps 757 mmHg 56%
04:00 +8°C° 0 mm 2 mps 756 mmHg 57%
05:00 +8°C° 0 mm 2 mps 756 mmHg 58%
06:00 +9°C° 0 mm 2 mps 757 mmHg 56%
07:00 +10°C° 0 mm 2 mps 757 mmHg 55%
08:00 +10°C° 0 mm 2 mps 757 mmHg 54%
09:00 +14°C° 0 mm 2 mps 757 mmHg 49%
10:00 +16°C° 0 mm 2 mps 757 mmHg 43%
11:00 +18°C° 0 mm 2 mps 757 mmHg 38%
12:00 +19°C° 0 mm 2 mps 757 mmHg 36%
13:00 +20°C° 0 mm 2 mps 756 mmHg 35%
14:00 +20°C° 0 mm 2 mps 755 mmHg 33%
15:00 +19°C° 0 mm 2 mps 755 mmHg 37%
16:00 +18°C° 0 mm 2 mps 755 mmHg 41%
17:00 +17°C° 0 mm 2 mps 755 mmHg 45%
18:00 +16°C° 0 mm 3 mps 756 mmHg 45%
19:00 +13°C° 0 mm 3 mps 756 mmHg 44%
20:00 +12°C° 0 mm 4 mps 756 mmHg 44%
21:00 +11°C° 0 mm 4 mps 757 mmHg 43%
22:00 +11°C° 0 mm 4 mps 757 mmHg 41%
23:00 +11°C° 0 mm 4 mps 758 mmHg 40%
Mostrar más